Temperature
19 19 19 19 19 19 19 19 19 19 19 19 19 19 19 19 19 19 19 19 19 18 18 18 18 18 18 17 17 17 17 17 17 17 17 17 17 17 17 17 17 17 17
19 19 19 19 19 19 19 19 19 19 19 19 19 19 19 19 19 19 19 19 18 18 18 18 18 18 18 18 17 17 17 17 17 17 17 17 17 17 17 17 17 17 17
18 18 18 18 18 19 19 19 19 19 19 19 19 19 19 19 19 19 19 18 18 18 18 18 18 18 18 18 18 17 18 17 17 17 17 17 17 17 17 17 17 17 17
18 18 18 18 18 18 19 19 19 19 19 19 19 19 19 19 19 19 19 18 18 18 18 18 18 18 18 18 18 18 17 17 17 17 17 17 17 17 17 17 17 17 17
18 18 18 18 18 18 18 18 18 18 19 19 19 19 19 19 19 19 19 18 18 18 18 18 18 18 18 18 18 18 17 17 17 17 17 17 17 17 17 17 17 17 17
18 18 18 18 18 18 18 18 18 18 18 18 19 19 19 19 19 19 19 18 18 18 18 18 18 18 18 17 17 17 17 17 17 17 17 17 17 17 17 17 17 16 16
18 18 18 18 18 18 18 18 18 18 18 18 18 19 19 19 19 19 19 18 18 18 18 18 18 17 17 17 17 17 17 17 17 17 17 17 17 17 17 17 16 16 16
18 18 18 18 18 18 18 18 18 18 18 18 18 18 18 19 19 19 18 18 18 18 18 17 18 17 17 17 17 17 17 17 17 17 17 17 17 16 16 16 16 16 16
18 18 18 18 18 18 18 18 18 18 18 18 18 18 18 18 18 18 18 18 18 18 18 18 18 17 17 17 17 17 17 17 17 17 17 16 16 16 16 16 16 16 16
18 18 18 18 18 18 18 18 18 18 18 18 18 18 18 18 18 18 18 18 18 18 18 17 17 17 17 17 17 17 17 17 17 17 16 16 16 16 16 16 16 16 16
18 18 18 18 18 18 18 18 17 18 17 17 18 18 18 18 18 18 17 17 17 17 17 17 17 17 17 17 17 17 17 17 16 16 16 16 16 16 16 16 16 16 15
18 18 18 18 18 18 18 18 17 17 17 17 17 17 17 17 18 18 17 17 17 17 17 17 17 17 17 17 16 16 16 16 16 16 16 16 16 16 16 16 15 15 15
18 18 18 18 18 18 17 17 17 17 17 17 17 17 17 17 17 17 17 17 17 17 17 17 16 16 16 16 16 16 16 16 16 16 16 15 15 15 15 15 15 15 15
17 17 17 17 17 17 17 17 17 17 17 17 17 17 17 17 17 17 17 17 16 16 16 16 16 16 16 16 16 16 16 15 15 15 15 15 15 15 15 15 15 15 15
17 17 17 17 17 17 17 17 17 16 16 16 16 16 16 16 16 17 16 16 16 16 16 16 16 16 16 16 15 15 15 15 15 15 15 15 15 15 15 15 15 15 15
17 17 17 17 17 16 16 16 16 16 16 16 16 16 16 16 16 16 16 16 16 16 16 16 15 15 15 15 15 15 15 15 15 15 15 15 15 15 15 15 15 14 14
17 17 17 16 16 16 16 16 16 16 16 16 16 16 16 16 16 16 16 16 16 16 15 15 15 15 15 15 15 15 15 15 15 15 15 15 15 15 14 14 14 14 14
17 16 16 16 16 16 16 16 15 15 15 15 15 15 15 15 15 15 15 15 15 15 15 15 15 15 15 15 14 14 14 14 15 14 15 15 14 14 14 14 14 14 14
16 16 16 16 16 16 15 15 15 15 15 15 15 15 15 15 15 15 15 15 15 15 15 15 14 15 14 14 14 14 14 14 14 14 14 14 14 14 14 14 14 14 14
16 16 16 15 15 15 15 15 15 15 14 14 14 14 14 14 14 14 14 14 14 14 14 14 14 14 14 14 14 14 14 14 14 14 14 14 14 14 14 14 14 14 14
16 16 15 15 15 15 15 15 15 15 14 14 14 14 14 14 14 14 14 14 14 14 14 14 14 14 14 14 14 14 13 14 13 14 14 14 14 14 14 13 13 13 13
15 15 15 15 15 15 15 15 15 14 14 14 14 14 14 14 14 14 13 13 13 13 13 13 13 13 13 13 13 13 13 13 13 13 13 13 13 13 13 13 13 13 13
15 15 15 15 15 15 15 14 14 14 14 14 14 14 13 13 13 13 13 13 13 13 13 13 13 13 13 13 13 13 13 13 13 13 13 13 13 13 13 13 13 13 13
15 15 15 14 14 14 14 14 14 14 14 14 13 13 13 13 13 13 13 13 13 12 12 12 12 12 12 13 12 12 12 12 12 12 13 13 13 13 13 13 13 13 13
15 15 14 14 14 14 14 14 14 14 13 13 13 13 13 13 12 12 12 12 12 12 12 12 12 12 12 12 12 12 12 12 12 12 12 12 12 12 12 12 12 12 12
15 14 14 14 14 14 14 14 13 13 13 13 13 12 12 12 12 12 12 12 12 11 12 12 12 12 12 12 12 12 12 12 12 12 12 12 12 12 12 12 12 12 12
Wind_Speed
2 2 2 1 1 1 1 1 2 2 2 2 3 4 4 3 3 4 6 10 11 11 10 10 10 10 10 10 10 10 10 11 11 12 13 13 13 12 12 12 13 13 12
2 1 1 1 0 0 1 1 1 0 1 1 2 2 3 3 3 4 6 8 9 10 11 10 10 10 10 10 10 10 11 11 11 12 13 12 13 12 12 12 12 12 12
2 1 1 1 1 1 0 0 1 0 1 1 1 2 2 2 3 3 4 5 7 8 10 10 10 10 10 10 10 11 12 12 12 12 12 12 12 12 12 12 12 12 12
2 1 1 1 1 1 1 0 0 1 1 1 1 1 1 2 3 3 3 4 4 5 7 10 9 9 9 9 10 11 11 12 12 13 13 13 12 12 12 12 12 12 12
3 1 2 1 1 1 1 2 2 2 1 1 1 2 2 2 2 3 3 3 4 4 5 8 9 8 8 8 9 10 11 11 11 12 13 13 13 12 11 12 12 12 12
3 2 1 1 1 1 2 2 2 2 1 1 2 1 1 2 2 2 2 2 2 4 5 6 7 6 6 6 7 9 9 10 11 11 13 13 13 12 12 12 12 12 12
2 1 2 1 1 1 1 2 2 2 1 1 1 1 1 2 2 2 2 1 1 2 4 6 6 5 4 5 4 6 7 8 10 9 10 10 11 11 11 11 11 12 13
2 2 3 2 1 1 1 2 2 2 2 1 1 1 1 1 1 0 1 1 1 1 2 3 4 5 5 5 3 6 7 8 8 8 8 9 9 9 10 10 10 11 13
3 3 2 2 2 1 1 1 1 2 2 2 1 1 1 1 1 1 1 0 0 1 1 2 3 4 4 4 5 5 7 7 7 7 7 7 7 7 8 8 9 10 11
2 2 2 2 2 2 2 3 2 2 2 3 2 2 1 1 1 1 1 1 1 1 1 1 2 4 5 5 5 7 7 6 6 6 6 6 6 7 8 8 8 8 9
2 2 2 2 2 2 3 3 3 3 2 3 3 3 2 2 0 1 1 1 1 1 0 0 1 3 4 4 5 5 7 6 5 5 5 5 5 6 7 8 8 8 8
2 2 2 3 3 2 3 3 3 3 3 3 3 2 2 2 1 1 2 1 1 1 1 1 1 2 3 4 5 6 6 6 6 5 4 4 4 5 6 7 7 7 6
2 2 2 2 2 2 2 3 3 2 3 3 3 2 2 2 2 1 1 1 1 1 1 1 1 2 3 5 5 6 6 6 5 4 4 3 4 5 6 7 7 6 5
2 2 2 2 2 3 3 3 3 3 2 3 4 3 2 2 2 1 1 1 2 2 1 1 1 2 2 4 5 6 5 6 5 3 2 3 4 4 6 6 6 6 6
2 2 2 2 2 3 3 3 2 3 3 3 4 4 3 3 2 2 1 1 2 2 2 1 0 1 2 3 5 5 4 6 6 5 4 4 4 4 5 6 6 7 7
3 3 3 3 2 3 3 3 3 3 3 3 3 3 3 3 3 2 2 2 2 1 2 1 1 1 1 2 4 4 3 5 6 6 6 5 5 5 6 6 6 7 7
2 2 2 2 2 3 3 3 3 3 3 3 4 3 3 3 3 3 3 3 2 1 1 2 1 0 1 1 2 2 2 3 3 6 7 6 6 5 6 6 6 6 6
1 1 1 1 2 2 3 3 4 4 4 4 4 4 4 3 4 3 3 3 2 1 1 2 2 1 0 0 1 2 1 1 2 4 7 7 6 6 5 5 6 6 6
1 1 1 1 1 2 3 3 4 4 4 4 4 4 4 4 4 4 4 3 3 2 1 2 2 1 1 1 1 2 2 1 2 2 5 6 6 6 6 6 6 7 6
1 1 1 1 2 3 3 4 4 4 4 4 4 4 4 4 4 3 3 3 3 3 2 2 2 1 1 1 1 1 1 2 2 1 2 3 6 7 7 7 7 7 7
1 1 1 2 2 2 4 5 5 4 4 4 4 4 4 6 8 5 4 3 3 3 3 2 2 2 1 1 1 1 1 1 2 2 1 2 4 4 5 6 8 8 8
1 1 1 2 3 4 6 8 7 5 4 4 3 3 2 4 6 6 6 5 4 3 3 3 3 2 3 2 2 2 1 1 2 1 1 2 2 3 4 4 8 10 10
1 1 1 1 2 4 6 7 8 6 4 3 2 3 4 4 4 4 5 5 4 4 3 2 3 3 3 3 3 2 2 1 2 3 2 2 1 1 2 4 9 11 11
1 1 0 1 2 3 4 5 8 5 3 2 2 3 3 4 5 4 4 4 4 4 4 2 2 3 2 3 2 3 3 2 2 2 1 2 1 1 1 2 7 9 10
1 1 1 1 1 3 3 4 5 4 3 3 2 3 3 3 6 6 4 4 4 4 4 4 3 3 3 3 2 2 2 1 2 1 1 1 2 1 1 1 4 7 8
2 2 1 1 2 3 3 4 4 3 3 2 2 3 5 5 5 6 3 3 4 4 5 4 3 3 3 3 2 1 2 2 2 1 1 1 2 2 1 0 1 3 5
Wind_Direction
79 70 70 49 21 82 125 288 262 236 215 216 210 208 207 190 162 155 151 170 175 184 193 201 205 208 212 214 218 215 215 216 216 212 208 207 205 203 201 204 204 206 207
77 62 77 92 27 33 110 231 283 302 249 222 220 226 210 189 154 143 152 169 183 190 196 201 205 210 213 216 218 214 215 218 216 211 207 206 204 203 204 205 205 207 209
79 75 99 58 8 344 333 256 341 305 235 234 220 232 185 182 155 156 160 166 177 194 203 202 204 209 215 219 216 214 214 212 211 208 206 204 204 204 205 207 207 209 208
77 77 86 48 4 336 316 282 352 309 281 258 238 251 168 151 152 161 171 171 171 182 194 202 207 210 215 221 218 213 208 205 206 206 204 202 202 205 206 209 208 207 208
72 59 81 59 339 21 357 350 28 7 350 307 264 222 186 184 178 192 171 168 175 172 170 184 195 205 211 217 213 209 206 201 203 204 200 199 200 205 206 208 208 207 208
70 39 87 64 11 49 11 0 2 351 309 266 288 321 196 191 184 186 178 169 167 180 171 165 173 193 202 210 211 206 203 200 196 196 198 200 202 205 208 209 208 208 210
55 51 42 38 354 74 34 349 359 338 311 272 324 330 277 209 188 182 181 157 187 165 143 143 151 158 162 212 211 191 181 180 181 186 191 195 199 205 207 209 212 215 216
42 53 47 15 1 25 16 320 325 323 312 314 316 320 325 319 352 257 127 160 221 129 120 151 137 139 149 162 187 179 168 168 174 179 188 192 196 202 205 210 216 221 220
48 32 47 24 -0 8 355 297 333 313 309 314 310 301 318 334 2 9 7 183 31 85 114 113 121 134 146 142 151 168 174 176 177 179 182 190 199 205 205 208 216 222 222
50 46 47 28 6 16 11 346 16 338 323 322 321 314 292 294 268 321 346 357 17 31 45 80 109 117 127 125 129 142 158 167 171 173 179 188 199 206 210 212 217 220 224
49 44 36 26 20 21 11 359 359 350 341 334 324 329 333 316 263 231 284 304 328 354 17 107 97 105 114 120 123 131 150 161 165 175 186 194 203 206 211 212 213 218 223
53 39 50 28 23 11 7 354 345 354 354 345 326 323 318 316 288 255 249 254 268 294 339 78 96 97 101 105 114 128 144 155 161 166 176 195 205 208 213 212 214 221 227
63 34 40 33 19 360 1 358 353 347 359 340 321 319 314 308 304 286 266 274 273 264 345 20 107 109 114 115 120 131 135 145 158 165 180 195 203 206 204 205 209 213 216
61 50 47 35 17 5 359 354 337 349 356 330 332 342 321 319 312 300 268 271 279 272 261 269 118 123 114 120 135 147 134 147 155 154 179 198 199 200 200 201 203 206 208
73 60 51 45 27 10 358 346 343 354 347 348 345 353 335 326 323 316 291 263 263 279 281 267 252 116 128 119 133 136 138 161 166 175 183 193 199 196 193 198 203 202 202
40 42 36 26 16 2 352 349 340 356 357 350 336 353 347 335 334 332 331 318 310 256 277 308 343 22 75 121 138 142 158 167 177 183 186 187 192 194 197 198 199 202 204
57 51 47 24 12 3 356 354 342 356 349 340 339 354 349 348 347 341 344 335 347 356 255 302 345 38 46 57 133 160 172 161 166 190 190 191 190 190 195 200 201 201 201
97 78 59 31 16 25 8 358 344 346 348 346 347 349 349 354 359 350 343 341 347 336 284 282 289 288 306 182 180 226 224 179 154 191 191 189 187 185 189 195 191 188 192
109 87 73 31 23 31 15 0 345 337 342 345 353 355 359 6 0 353 343 352 351 353 331 288 292 290 261 283 341 303 308 292 247 181 185 186 187 188 194 197 191 187 195
126 56 49 20 26 46 25 6 351 339 350 355 2 9 11 17 7 346 352 2 349 343 321 307 296 306 306 310 312 298 302 307 298 237 187 179 191 193 198 198 193 191 196
87 55 37 31 32 45 25 16 348 349 350 346 2 11 23 39 34 19 8 356 348 339 328 326 319 327 334 333 314 302 292 285 285 259 225 213 184 185 196 202 199 196 195
79 63 37 40 29 32 30 23 4 341 341 348 0 5 15 37 26 20 20 7 354 338 338 334 326 330 329 325 331 308 309 302 288 286 270 262 207 190 194 185 190 190 193
102 83 52 56 70 50 29 22 3 335 337 6 11 352 348 22 30 17 4 359 347 333 306 296 310 312 308 326 330 311 303 313 295 292 291 277 256 218 205 185 185 189 190
138 146 174 61 71 63 38 18 355 334 349 15 17 17 28 25 20 8 353 360 348 348 338 331 317 308 315 334 320 285 269 260 269 294 290 274 282 281 272 163 189 186 186
174 186 174 156 100 88 52 27 2 327 351 3 22 41 43 43 24 17 15 357 348 344 348 358 350 323 298 301 318 326 314 300 281 288 304 275 281 288 246 175 194 196 198
203 207 174 166 140 118 87 46 7 339 344 357 41 55 58 57 39 21 4 341 334 333 334 332 324 306 286 269 269 262 293 292 290 294 323 324 312 340 324 274 161 186 205
Height
1501 1502 1502 1503 1503 1504 1504 1503 1504 1504 1504 1505 1505 1506 1507 1508 1508 1508 1509 1509 1510 1511 1511 1511 1512 1512 1513 1514 1515 1516 1517 1519 1520 1522 1524 1526 1528 1530 1532 1534 1535 1537 1539
1501 1502 1502 1503 1503 1503 1503 1503 1503 1503 1503 1504 1504 1505 1506 1506 1507 1507 1508 1508 1508 1509 1509 1509 1509 1509 1510 1510 1511 1511 1512 1515 1517 1518 1521 1523 1525 1527 1529 1531 1532 1534 1536
1501 1502 1503 1503 1503 1503 1503 1502 1502 1502 1502 1503 1503 1503 1504 1505 1505 1506 1506 1506 1506 1506 1506 1506 1506 1507 1507 1507 1507 1507 1508 1510 1513 1515 1517 1519 1522 1523 1525 1527 1529 1531 1533
1502 1502 1503 1503 1503 1503 1503 1502 1502 1501 1502 1502 1502 1503 1503 1504 1504 1504 1505 1505 1505 1505 1504 1504 1504 1504 1504 1503 1503 1503 1504 1506 1509 1511 1514 1516 1518 1520 1522 1524 1526 1528 1530
1503 1503 1503 1503 1503 1503 1503 1502 1502 1501 1501 1501 1501 1502 1502 1502 1503 1503 1504 1503 1503 1503 1502 1502 1502 1501 1501 1500 1500 1500 1501 1503 1505 1508 1510 1513 1515 1517 1519 1521 1523 1525 1526
1503 1503 1503 1503 1503 1503 1502 1502 1501 1501 1500 1500 1501 1501 1501 1501 1502 1502 1502 1502 1502 1501 1501 1500 1500 1500 1500 1499 1497 1497 1497 1498 1501 1504 1507 1509 1512 1513 1515 1518 1520 1521 1523
1503 1503 1503 1503 1503 1503 1503 1502 1501 1501 1500 1500 1500 1500 1500 1500 1500 1501 1501 1501 1501 1500 1499 1499 1499 1498 1498 1497 1496 1495 1493 1494 1499 1502 1504 1507 1509 1511 1513 1515 1516 1518 1520
1504 1504 1503 1503 1503 1503 1503 1502 1502 1501 1501 1500 1500 1500 1500 1501 1499 1500 1500 1500 1499 1500 1499 1499 1499 1498 1497 1497 1496 1496 1495 1496 1499 1501 1502 1504 1506 1508 1510 1511 1513 1514 1516
1504 1504 1504 1504 1503 1503 1503 1502 1502 1502 1501 1501 1501 1501 1500 1499 1499 1500 1499 1499 1499 1499 1499 1498 1497 1496 1496 1497 1496 1496 1496 1497 1498 1500 1501 1503 1504 1505 1507 1508 1509 1511 1512
1504 1504 1504 1504 1503 1503 1503 1502 1502 1502 1501 1501 1501 1501 1501 1500 1499 1499 1499 1499 1498 1498 1498 1498 1497 1497 1497 1496 1495 1495 1496 1497 1498 1499 1500 1501 1502 1503 1504 1505 1506 1507 1508
1505 1504 1504 1504 1503 1503 1503 1502 1502 1501 1501 1500 1500 1500 1499 1499 1499 1499 1498 1498 1498 1498 1497 1497 1497 1496 1496 1495 1495 1495 1496 1496 1497 1498 1498 1499 1500 1500 1501 1502 1503 1504 1505
1505 1504 1504 1503 1503 1502 1502 1502 1501 1500 1500 1500 1499 1499 1499 1498 1498 1497 1497 1497 1497 1497 1496 1496 1495 1495 1495 1494 1494 1494 1495 1496 1496 1496 1497 1497 1498 1498 1498 1499 1500 1501 1502
1504 1504 1504 1503 1503 1502 1502 1501 1500 1499 1499 1498 1498 1498 1497 1497 1497 1497 1496 1496 1495 1496 1495 1495 1494 1494 1494 1493 1493 1494 1494 1494 1495 1495 1495 1495 1495 1495 1495 1496 1497 1498 1499
1504 1504 1503 1503 1503 1502 1501 1501 1500 1499 1498 1498 1497 1497 1496 1496 1496 1495 1495 1495 1494 1494 1494 1494 1494 1493 1493 1492 1492 1492 1493 1493 1493 1493 1493 1493 1493 1493 1493 1494 1495 1495 1496
1504 1503 1503 1503 1502 1501 1501 1500 1499 1498 1498 1497 1496 1496 1495 1494 1494 1494 1494 1494 1494 1492 1492 1492 1492 1492 1492 1491 1491 1491 1491 1491 1491 1491 1491 1491 1491 1491 1492 1492 1493 1493 1494
1503 1503 1503 1502 1501 1501 1500 1499 1498 1498 1497 1496 1495 1494 1494 1493 1492 1492 1492 1492 1492 1491 1490 1491 1491 1491 1491 1491 1490 1489 1490 1490 1490 1490 1490 1490 1489 1490 1490 1490 1490 1491 1492
1502 1502 1502 1501 1501 1500 1499 1499 1498 1497 1496 1495 1494 1493 1492 1492 1491 1491 1490 1490 1490 1490 1489 1489 1489 1489 1489 1489 1488 1488 1488 1488 1488 1488 1488 1488 1488 1488 1487 1488 1488 1488 1489
1501 1501 1501 1501 1500 1500 1499 1498 1497 1496 1495 1494 1493 1492 1491 1491 1490 1489 1489 1489 1488 1488 1488 1487 1487 1487 1487 1487 1487 1486 1486 1486 1486 1486 1486 1486 1486 1486 1485 1485 1485 1486 1487
1500 1501 1501 1500 1499 1499 1498 1497 1496 1496 1495 1494 1493 1492 1491 1490 1489 1488 1488 1487 1487 1487 1486 1486 1485 1485 1485 1485 1485 1485 1485 1485 1484 1484 1484 1484 1484 1484 1484 1484 1483 1484 1484
1500 1500 1500 1499 1499 1498 1497 1497 1496 1495 1494 1493 1492 1491 1490 1488 1487 1487 1486 1486 1485 1485 1485 1484 1484 1484 1484 1484 1484 1483 1483 1483 1483 1482 1482 1482 1482 1482 1482 1482 1482 1482 1482
1499 1499 1498 1498 1498 1497 1496 1496 1495 1494 1493 1492 1491 1490 1489 1488 1487 1486 1485 1484 1484 1484 1483 1483 1482 1482 1482 1481 1481 1481 1481 1481 1480 1481 1480 1480 1479 1479 1479 1479 1480 1480 1480
1497 1497 1497 1497 1497 1496 1496 1495 1494 1493 1492 1490 1489 1488 1487 1486 1485 1484 1483 1483 1482 1482 1482 1481 1480 1480 1480 1480 1479 1479 1479 1479 1478 1479 1478 1478 1478 1477 1477 1477 1478 1478 1478
1496 1496 1496 1496 1495 1495 1494 1494 1492 1491 1490 1489 1488 1487 1486 1485 1483 1482 1481 1481 1480 1480 1480 1480 1479 1478 1478 1478 1477 1476 1476 1476 1476 1476 1477 1477 1476 1476 1476 1475 1476 1476 1476
1495 1495 1495 1495 1494 1494 1493 1492 1491 1490 1489 1488 1487 1486 1485 1483 1482 1481 1480 1479 1478 1478 1478 1477 1477 1476 1476 1476 1475 1475 1475 1474 1474 1475 1475 1475 1474 1474 1474 1474 1474 1474 1474
1494 1494 1494 1494 1493 1492 1492 1491 1490 1489 1488 1487 1486 1485 1483 1482 1481 1480 1478 1477 1476 1476 1476 1476 1475 1474 1474 1474 1473 1473 1473 1472 1472 1472 1473 1473 1472 1472 1472 1472 1472 1472 1472
1493 1493 1493 1493 1492 1491 1490 1489 1489 1488 1487 1486 1485 1484 1482 1481 1480 1478 1477 1476 1475 1474 1474 1473 1473 1472 1472 1471 1471 1471 1471 1471 1471 1471 1471 1471 1471 1470 1470 1470 1470 1470 1470